Location: Boiro
(42.6475°N, 8.8834°W)
Time: 12:33:53
(UTC+01:00)

Transit 4A - Pass Details

Date: 05 December 2021
Orbit: 863 x 981 km, 66.8° (Epoch: 26 January)

Event Time Altitude Azimuth Distance (km) Brightness Sun altitude
Rises 21:12:37 0° 229° (SW) 3,452 11.5 -34.3°
Reaches altitude 10° 21:15:11 10° 235° (SW) 2,528 10.7 -34.7°
Enters shadow 21:19:57 43° 285° (WNW) 1,238 8.8 -35.6°
